Time,TemperatureF,DewpointF,PressureIn,WindDirection,WindDirectionDegrees,WindSpeedMPH,WindSpeedGustMPH,Humidity,HourlyPrecipIn,Conditions,Clouds,dailyrainin,SolarRadiationWatts/m^2,SoftwareType,DateUTC
2013-02-19 00:02:00,44.4,36.7,30.11,SW,232,8.0,12.0,74,0.00,,,0.00,0.0,meteohub,2013-02-19 08:02:00,
2013-02-19 00:07:00,44.4,36.7,30.11,West,265,3.0,10.0,74,0.00,,,0.00,0.0,meteohub,2013-02-19 08:07:00,
2013-02-19 00:12:00,44.6,36.9,30.11,West,271,5.0,11.0,74,0.00,,,0.00,0.0,meteohub,2013-02-19 08:12:00,
2013-02-19 00:17:00,44.6,36.9,30.11,West,275,5.0,11.0,74,0.00,,,0.00,0.0,meteohub,2013-02-19 08:17:00,
2013-02-19 00:27:00,44.8,36.7,30.11,WNW,291,4.0,11.0,73,0.00,,,0.00,0.0,meteohub,2013-02-19 08:27:00,
2013-02-19 00:37:00,44.8,36.7,30.11,West,271,3.0,11.0,73,0.00,,,0.00,0.0,meteohub,2013-02-19 08:37:00,
2013-02-19 00:47:00,45.0,36.9,30.11,West,265,6.0,11.0,73,0.00,,,0.00,0.0,meteohub,2013-02-19 08:47:00,
2013-02-19 00:52:00,45.0,36.9,30.11,WNW,289,4.0,11.0,73,0.00,,,0.00,0.0,meteohub,2013-02-19 08:52:00,
2013-02-19 00:57:00,45.0,36.9,30.11,West,271,4.0,9.0,73,0.00,,,0.00,0.0,meteohub,2013-02-19 08:57:00,
2013-02-19 01:02:00,44.8,36.7,30.11,West,261,3.0,9.0,73,0.00,,,0.00,0.0,meteohub,2013-02-19 09:02:00,
2013-02-19 01:07:00,44.8,37.0,30.11,WSW,256,6.0,8.0,74,0.00,,,0.00,0.0,meteohub,2013-02-19 09:07:00,
2013-02-19 01:17:00,44.8,37.0,30.11,West,267,4.0,10.0,74,0.00,,,0.00,0.0,meteohub,2013-02-19 09:17:00,
2013-02-19 01:27:00,44.8,37.0,30.11,WSW,240,7.0,9.0,74,0.00,,,0.00,0.0,meteohub,2013-02-19 09:27:00,
2013-02-19 01:32:00,44.8,37.0,30.11,West,265,5.0,9.0,74,0.00,,,0.00,0.0,meteohub,2013-02-19 09:32:00,
2013-02-19 01:42:00,45.0,37.2,30.11,WSW,237,6.0,9.0,74,0.00,,,0.00,0.0,meteohub,2013-02-19 09:42:00,
2013-02-19 01:57:00,44.8,37.8,30.10,WNW,287,3.0,9.0,76,0.00,,,0.00,0.0,meteohub,2013-02-19 09:57:00,
2013-02-19 02:02:00,44.8,37.8,30.10,WSW,248,3.0,6.0,76,0.00,,,0.00,0.0,meteohub,2013-02-19 10:02:00,
2013-02-19 02:07:00,45.0,37.9,30.10,West,273,5.0,6.0,76,0.00,,,0.00,0.0,meteohub,2013-02-19 10:07:00,
2013-02-19 02:17:00,44.8,37.8,30.09,West,259,2.0,9.0,76,0.00,,,0.00,0.0,meteohub,2013-02-19 10:17:00,
2013-02-19 02:22:00,44.6,37.8,30.09,WSW,244,4.0,9.0,77,0.00,,,0.00,0.0,meteohub,2013-02-19 10:22:00,
2013-02-19 02:27:00,44.2,37.8,30.09,West,266,3.0,5.0,78,0.00,,,0.00,0.0,meteohub,2013-02-19 10:27:00,
2013-02-19 02:32:00,44.2,38.5,30.09,West,276,4.0,7.0,80,0.00,,,0.00,0.0,meteohub,2013-02-19 10:32:00,
2013-02-19 02:37:00,44.2,38.8,30.09,West,270,1.0,7.0,81,0.00,,,0.00,0.0,meteohub,2013-02-19 10:37:00,
2013-02-19 02:42:00,44.2,38.8,30.09,WSW,253,4.0,7.0,81,0.00,,,0.00,0.0,meteohub,2013-02-19 10:42:00,
2013-02-19 02:48:00,44.2,38.8,30.08,WNW,296,1.0,7.0,81,0.00,,,0.00,0.0,meteohub,2013-02-19 10:48:00,
2013-02-19 02:58:00,44.1,38.3,30.08,West,259,4.0,7.0,80,0.00,,,0.00,0.0,meteohub,2013-02-19 10:58:00,
2013-02-19 03:07:00,44.1,38.8,30.08,WSW,256,5.0,8.0,82,0.00,,,0.00,0.0,meteohub,2013-02-19 11:07:00,
2013-02-19 03:12:00,43.9,38.7,30.07,WNW,284,4.0,8.0,82,0.00,,,0.00,0.0,meteohub,2013-02-19 11:12:00,
2013-02-19 03:22:00,43.5,38.5,30.07,West,273,4.0,8.0,82,0.00,,,0.00,0.0,meteohub,2013-02-19 11:22:00,
2013-02-19 03:32:00,43.9,38.5,30.07,WSW,250,5.0,7.0,81,0.00,,,0.00,0.0,meteohub,2013-02-19 11:32:00,
2013-02-19 03:42:00,44.1,38.7,30.07,WNW,290,7.0,8.0,81,0.00,,,0.00,0.0,meteohub,2013-02-19 11:42:00,
2013-02-19 03:52:00,43.9,38.5,30.06,West,261,5.0,8.0,81,0.00,,,0.00,0.0,meteohub,2013-02-19 11:52:00,
2013-02-19 03:57:00,44.1,38.7,30.07,WSW,257,1.0,7.0,81,0.00,,,0.00,0.0,meteohub,2013-02-19 11:57:00,
2013-02-19 04:02:00,44.1,38.7,30.06,WNW,287,1.0,6.0,81,0.00,,,0.00,0.0,meteohub,2013-02-19 12:02:00,
2013-02-19 04:07:00,44.1,38.7,30.06,West,273,0.0,6.0,81,0.00,,,0.00,0.0,meteohub,2013-02-19 12:07:00,
2013-02-19 04:17:00,44.4,39.0,30.06,SW,234,3.0,6.0,81,0.00,,,0.00,0.0,meteohub,2013-02-19 12:17:00,
2013-02-19 04:22:00,44.2,38.8,30.06,SSW,213,3.0,6.0,81,0.00,,,0.00,0.0,meteohub,2013-02-19 12:22:00,
2013-02-19 04:27:00,44.1,38.7,30.06,West,270,2.0,6.0,81,0.00,,,0.00,0.0,meteohub,2013-02-19 12:27:00,
2013-02-19 04:37:00,43.9,38.7,30.06,WSW,243,2.0,6.0,82,0.00,,,0.00,0.0,meteohub,2013-02-19 12:37:00,
2013-02-19 05:03:00,44.2,39.4,30.05,NW,305,2.0,6.0,83,0.00,,,0.00,0.0,meteohub,2013-02-19 13:03:00,
2013-02-19 05:12:00,44.2,39.4,30.05,West,270,2.0,6.0,83,0.00,,,0.00,0.0,meteohub,2013-02-19 13:12:00,
2013-02-19 05:17:00,44.2,39.7,30.05,WNW,287,3.0,5.0,84,0.00,,,0.00,0.0,meteohub,2013-02-19 13:17:00,
2013-02-19 05:27:00,44.1,39.6,30.05,West,277,3.0,9.0,84,0.00,,,0.00,0.0,meteohub,2013-02-19 13:27:00,
2013-02-19 05:32:00,44.2,39.7,30.05,West,278,3.0,9.0,84,0.00,,,0.00,0.0,meteohub,2013-02-19 13:32:00,
2013-02-19 05:43:00,44.6,40.1,30.04,WNW,296,2.0,7.0,84,0.00,,,0.00,0.0,meteohub,2013-02-19 13:43:00,
2013-02-19 05:57:00,44.4,40.3,30.04,NNW,338,2.0,9.0,85,0.00,,,0.00,0.0,meteohub,2013-02-19 13:57:00,
2013-02-19 06:07:00,44.4,40.5,30.04,WNW,286,6.0,10.0,86,0.00,,,0.00,0.0,meteohub,2013-02-19 14:07:00,
2013-02-19 06:12:00,44.1,40.5,30.04,WNW,286,4.0,10.0,87,0.00,,,0.00,0.0,meteohub,2013-02-19 14:12:00,
2013-02-19 06:22:00,43.7,40.5,30.03,West,263,5.0,10.0,88,0.01,,,0.01,0.0,meteohub,2013-02-19 14:22:00,
2013-02-19 06:27:00,43.5,40.5,30.03,West,281,6.0,11.0,89,0.01,,,0.01,0.0,meteohub,2013-02-19 14:27:00,
2013-02-19 06:32:00,43.5,40.5,30.03,West,276,4.0,11.0,89,0.01,,,0.01,0.0,meteohub,2013-02-19 14:32:00,
2013-02-19 06:37:00,43.3,40.6,30.02,WNW,289,5.0,11.0,90,0.01,,,0.01,0.0,meteohub,2013-02-19 14:37:00,
2013-02-19 06:42:00,43.3,40.6,30.02,West,269,6.0,10.0,90,0.01,,,0.01,0.0,meteohub,2013-02-19 14:42:00,
2013-02-19 06:47:00,43.5,40.8,30.02,West,260,7.0,10.0,90,0.01,,,0.01,0.0,meteohub,2013-02-19 14:47:00,
2013-02-19 06:52:00,43.5,40.8,30.02,West,264,6.0,12.0,90,0.01,,,0.01,0.0,meteohub,2013-02-19 14:52:00,
2013-02-19 06:57:00,43.5,40.8,30.01,West,274,6.0,12.0,90,0.01,,,0.01,0.0,meteohub,2013-02-19 14:57:00,
2013-02-19 07:02:00,43.5,40.8,30.01,West,277,6.0,11.0,90,0.01,,,0.01,0.0,meteohub,2013-02-19 15:02:00,
2013-02-19 07:07:00,43.5,41.0,30.01,WSW,240,4.0,11.0,91,0.01,,,0.01,0.0,meteohub,2013-02-19 15:07:00,
2013-02-19 07:12:00,43.5,41.0,30.01,SW,234,3.0,11.0,91,0.01,,,0.01,5.0,meteohub,2013-02-19 15:12:00,
2013-02-19 07:17:00,43.9,41.4,30.01,NW,319,7.0,12.0,91,0.00,,,0.01,5.0,meteohub,2013-02-19 15:17:00,
2013-02-19 07:22:00,43.9,41.4,30.01,WNW,292,3.0,12.0,91,0.00,,,0.01,9.0,meteohub,2013-02-19 15:22:00,
2013-02-19 07:27:00,43.9,41.2,30.01,WNW,296,6.0,12.0,90,0.00,,,0.01,11.0,meteohub,2013-02-19 15:27:00,
2013-02-19 07:37:00,44.1,41.4,30.01,West,278,5.0,10.0,90,0.00,,,0.01,18.0,meteohub,2013-02-19 15:37:00,
2013-02-19 07:42:00,44.1,41.4,30.01,NW,308,7.0,10.0,90,0.00,,,0.01,23.0,meteohub,2013-02-19 15:42:00,
2013-02-19 07:47:00,44.1,41.4,30.00,WNW,297,3.0,10.0,90,0.00,,,0.01,28.0,meteohub,2013-02-19 15:47:00,
2013-02-19 07:52:00,44.1,41.4,30.00,NNW,327,6.0,9.0,90,0.00,,,0.01,25.0,meteohub,2013-02-19 15:52:00,
2013-02-19 08:02:00,44.1,41.4,29.99,WNW,294,4.0,9.0,90,0.00,,,0.01,28.0,meteohub,2013-02-19 16:02:00,
2013-02-19 08:07:00,44.2,41.5,29.99,WNW,289,4.0,9.0,90,0.00,,,0.01,21.0,meteohub,2013-02-19 16:07:00,
2013-02-19 08:12:00,44.2,41.5,29.99,WNW,290,5.0,10.0,90,0.00,,,0.01,21.0,meteohub,2013-02-19 16:12:00,
2013-02-19 08:17:00,44.2,41.5,29.99,West,280,5.0,10.0,90,0.01,,,0.02,26.0,meteohub,2013-02-19 16:17:00,
2013-02-19 08:22:00,44.4,41.7,29.99,WSW,255,8.0,10.0,90,0.01,,,0.02,35.0,meteohub,2013-02-19 16:22:00,
2013-02-19 08:32:00,44.2,41.5,29.99,WSW,254,5.0,10.0,90,0.01,,,0.02,30.0,meteohub,2013-02-19 16:32:00,
2013-02-19 08:37:00,44.2,41.5,29.99,WNW,290,5.0,10.0,90,0.01,,,0.02,51.0,meteohub,2013-02-19 16:37:00,
2013-02-19 08:42:00,44.4,41.7,29.99,WSW,243,5.0,10.0,90,0.01,,,0.02,60.0,meteohub,2013-02-19 16:42:00,
2013-02-19 08:47:00,44.4,41.7,29.99,WNW,300,3.0,10.0,90,0.01,,,0.02,54.0,meteohub,2013-02-19 16:47:00,
2013-02-19 08:52:00,44.2,41.5,29.98,WNW,293,4.0,9.0,90,0.01,,,0.02,84.0,meteohub,2013-02-19 16:52:00,
2013-02-19 08:57:00,44.2,41.5,29.98,West,270,2.0,8.0,90,0.01,,,0.02,70.0,meteohub,2013-02-19 16:57:00,
2013-02-19 09:02:00,44.4,41.7,29.97,West,277,1.0,8.0,90,0.01,,,0.02,83.0,meteohub,2013-02-19 17:02:00,
2013-02-19 09:07:00,44.8,42.1,29.97,WNW,293,1.0,7.0,90,0.01,,,0.02,146.0,meteohub,2013-02-19 17:07:00,
2013-02-19 09:12:00,45.0,42.3,29.97,NNW,344,0.0,5.0,90,0.01,,,0.02,81.0,meteohub,2013-02-19 17:12:00,
2013-02-19 09:17:00,44.8,42.1,29.97,WNW,300,1.0,5.0,90,0.00,,,0.02,35.0,meteohub,2013-02-19 17:17:00,
2013-02-19 09:22:00,44.4,41.4,29.97,WNW,292,3.0,5.0,89,0.00,,,0.02,14.0,meteohub,2013-02-19 17:22:00,
2013-02-19 09:27:00,44.2,41.5,29.96,WNW,285,2.0,5.0,90,0.01,,,0.03,21.0,meteohub,2013-02-19 17:27:00,
2013-02-19 09:32:00,44.1,41.4,29.96,WNW,286,3.0,7.0,90,0.03,,,0.05,35.0,meteohub,2013-02-19 17:32:00,
2013-02-19 09:37:00,44.1,41.4,29.96,NW,319,0.0,7.0,90,0.03,,,0.05,51.0,meteohub,2013-02-19 17:37:00,
2013-02-19 09:42:00,44.1,41.5,29.96,WNW,282,2.0,7.0,91,0.05,,,0.07,60.0,meteohub,2013-02-19 17:42:00,
2013-02-19 09:47:00,44.1,41.5,29.97,WNW,296,5.0,7.0,91,0.07,,,0.09,46.0,meteohub,2013-02-19 17:47:00,
2013-02-19 09:52:00,43.9,41.4,29.97,WNW,303,2.0,8.0,91,0.07,,,0.09,37.0,meteohub,2013-02-19 17:52:00,
2013-02-19 10:02:00,43.9,41.4,29.97,WSW,253,4.0,8.0,91,0.11,,,0.12,35.0,meteohub,2013-02-19 18:02:00,
2013-02-19 10:07:00,43.3,40.8,29.97,WSW,250,7.0,8.0,91,0.12,,,0.14,47.0,meteohub,2013-02-19 18:07:00,
2013-02-19 10:12:00,43.2,40.6,29.97,WSW,246,3.0,9.0,91,0.12,,,0.14,33.0,meteohub,2013-02-19 18:12:00,
2013-02-19 10:17:00,43.3,40.8,29.97,WSW,245,2.0,9.0,91,0.13,,,0.14,26.0,meteohub,2013-02-19 18:17:00,
2013-02-19 10:22:00,43.2,40.6,29.97,West,266,3.0,9.0,91,0.12,,,0.15,25.0,meteohub,2013-02-19 18:22:00,
2013-02-19 10:27:00,43.3,40.8,29.97,WSW,248,7.0,9.0,91,0.12,,,0.16,46.0,meteohub,2013-02-19 18:27:00,
2013-02-19 10:32:00,43.2,40.6,29.97,West,281,8.0,10.0,91,0.12,,,0.16,30.0,meteohub,2013-02-19 18:32:00,
2013-02-19 10:37:00,43.0,40.5,29.98,WSW,246,5.0,11.0,91,0.12,,,0.18,39.0,meteohub,2013-02-19 18:37:00,
2013-02-19 10:42:00,42.4,39.7,29.98,SW,228,7.0,11.0,90,0.15,,,0.22,44.0,meteohub,2013-02-19 18:42:00,
2013-02-19 10:47:00,42.3,39.6,29.98,WSW,257,5.0,11.0,90,0.13,,,0.22,32.0,meteohub,2013-02-19 18:47:00,
2013-02-19 10:52:00,42.3,39.6,29.98,WSW,242,6.0,13.0,90,0.14,,,0.23,32.0,meteohub,2013-02-19 18:52:00,
2013-02-19 10:57:00,42.1,39.4,29.98,WSW,241,0.0,13.0,90,0.13,,,0.24,37.0,meteohub,2013-02-19 18:57:00,
2013-02-19 11:02:00,41.7,38.7,29.98,WSW,238,5.0,13.0,89,0.11,,,0.24,42.0,meteohub,2013-02-19 19:02:00,
2013-02-19 11:07:00,41.7,38.5,29.98,WSW,244,1.0,14.0,88,0.10,,,0.24,53.0,meteohub,2013-02-19 19:07:00,
2013-02-19 11:12:00,41.7,38.5,29.98,WSW,247,5.0,14.0,88,0.11,,,0.25,65.0,meteohub,2013-02-19 19:12:00,
2013-02-19 11:17:00,41.5,38.3,29.97,West,263,1.0,7.0,88,0.10,,,0.25,86.0,meteohub,2013-02-19 19:17:00,
2013-02-19 11:22:00,41.5,38.5,29.97,West,272,1.0,7.0,89,0.11,,,0.26,67.0,meteohub,2013-02-19 19:22:00,
2013-02-19 11:27:00,41.5,38.8,29.97,SW,227,0.0,5.0,90,0.10,,,0.26,91.0,meteohub,2013-02-19 19:27:00,
2013-02-19 11:32:00,41.7,39.0,29.96,SW,227,0.0,4.0,90,0.10,,,0.27,127.0,meteohub,2013-02-19 19:32:00,
2013-02-19 11:37:00,42.1,39.4,29.96,SW,227,0.0,4.0,90,0.08,,,0.27,179.0,meteohub,2013-02-19 19:37:00,
2013-02-19 11:42:00,42.4,39.7,29.96,WSW,254,2.0,2.0,90,0.05,,,0.27,160.0,meteohub,2013-02-19 19:42:00,
2013-02-19 11:47:00,42.6,39.9,29.95,West,259,1.0,3.0,90,0.05,,,0.27,295.0,meteohub,2013-02-19 19:47:00,
2013-02-19 11:52:00,43.2,40.5,29.95,West,267,4.0,4.0,90,0.04,,,0.27,209.0,meteohub,2013-02-19 19:52:00,
2013-02-19 11:57:00,43.5,40.8,29.95,West,266,1.0,5.0,90,0.03,,,0.27,169.0,meteohub,2013-02-19 19:57:00,
2013-02-19 12:02:00,43.3,40.1,29.95,West,262,1.0,5.0,88,0.03,,,0.27,155.0,meteohub,2013-02-19 20:02:00,
2013-02-19 12:07:00,43.5,39.9,29.94,WSW,237,3.0,6.0,87,0.02,,,0.27,120.0,meteohub,2013-02-19 20:07:00,
2013-02-19 12:12:00,43.3,39.7,29.94,West,265,6.0,7.0,87,0.02,,,0.27,79.0,meteohub,2013-02-19 20:12:00,
2013-02-19 12:17:00,43.2,39.2,29.95,West,267,4.0,7.0,86,0.01,,,0.27,123.0,meteohub,2013-02-19 20:17:00,
2013-02-19 12:22:00,43.2,39.9,29.95,SW,236,3.0,9.0,88,0.01,,,0.27,63.0,meteohub,2013-02-19 20:22:00,
2013-02-19 12:27:00,42.6,38.7,29.96,SW,224,14.0,20.0,86,0.02,,,0.28,40.0,meteohub,2013-02-19 20:27:00,
2013-02-19 12:32:00,41.0,36.9,29.96,SW,222,8.0,20.0,85,0.02,,,0.29,69.0,meteohub,2013-02-19 20:32:00,
2013-02-19 12:37:00,40.3,36.5,29.96,West,278,6.0,20.0,86,0.03,,,0.30,116.0,meteohub,2013-02-19 20:37:00,
2013-02-19 12:42:00,40.5,36.9,29.95,WSW,244,1.0,20.0,87,0.04,,,0.31,197.0,meteohub,2013-02-19 20:42:00,
2013-02-19 12:47:00,40.8,37.6,29.95,West,261,6.0,17.0,88,0.04,,,0.31,144.0,meteohub,2013-02-19 20:47:00,
2013-02-19 12:52:00,41.0,37.8,29.95,WNW,290,4.0,11.0,88,0.04,,,0.31,83.0,meteohub,2013-02-19 20:52:00,
2013-02-19 12:57:00,41.2,37.9,29.94,West,261,4.0,9.0,88,0.04,,,0.31,91.0,meteohub,2013-02-19 20:57:00,
2013-02-19 13:02:00,41.4,38.1,29.94,West,279,3.0,9.0,88,0.04,,,0.31,123.0,meteohub,2013-02-19 21:02:00,
2013-02-19 13:07:00,41.5,37.9,29.95,West,271,6.0,10.0,87,0.04,,,0.31,113.0,meteohub,2013-02-19 21:07:00,
2013-02-19 13:12:00,41.5,37.9,29.94,WSW,257,11.0,11.0,87,0.04,,,0.31,123.0,meteohub,2013-02-19 21:12:00,
2013-02-19 13:22:00,41.4,36.9,29.94,West,261,3.0,20.0,84,0.05,,,0.32,54.0,meteohub,2013-02-19 21:22:00,
2013-02-19 13:27:00,41.2,36.7,29.94,WSW,251,6.0,20.0,84,0.04,,,0.32,77.0,meteohub,2013-02-19 21:27:00,
2013-02-19 13:32:00,40.8,36.1,29.94,WSW,250,4.0,17.0,83,0.02,,,0.32,116.0,meteohub,2013-02-19 21:32:00,
2013-02-19 13:37:00,41.0,36.3,29.93,WSW,240,4.0,10.0,83,0.01,,,0.32,156.0,meteohub,2013-02-19 21:37:00,
2013-02-19 13:42:00,41.4,37.2,29.93,West,273,1.0,10.0,85,0.01,,,0.32,121.0,meteohub,2013-02-19 21:42:00,
2013-02-19 13:47:00,41.5,37.6,29.93,SW,229,6.0,9.0,86,0.01,,,0.32,86.0,meteohub,2013-02-19 21:47:00,
2013-02-19 13:52:00,41.5,37.6,29.93,West,263,1.0,8.0,86,0.01,,,0.32,95.0,meteohub,2013-02-19 21:52:00,
2013-02-19 13:57:00,41.5,37.6,29.92,WSW,252,1.0,7.0,86,0.01,,,0.32,97.0,meteohub,2013-02-19 21:57:00,
2013-02-19 14:07:00,43.0,39.0,29.92,West,265,6.0,6.0,86,0.01,,,0.32,346.0,meteohub,2013-02-19 22:07:00,
2013-02-19 14:22:00,45.9,41.0,29.91,NW,309,2.0,9.0,83,0.00,,,0.32,615.0,meteohub,2013-02-19 22:22:00,
2013-02-19 14:37:00,46.2,39.7,29.91,SW,225,16.0,17.0,78,0.00,,,0.32,606.0,meteohub,2013-02-19 22:37:00,
2013-02-19 14:42:00,46.4,39.9,29.90,West,278,3.0,20.0,78,0.01,,,0.33,571.0,meteohub,2013-02-19 22:42:00,
2013-02-19 14:47:00,46.6,40.1,29.91,SW,227,4.0,20.0,78,0.01,,,0.33,232.0,meteohub,2013-02-19 22:47:00,
2013-02-19 14:52:00,46.8,40.3,29.91,WSW,250,12.0,20.0,78,0.01,,,0.33,555.0,meteohub,2013-02-19 22:52:00,
2013-02-19 14:57:00,46.0,37.9,29.91,NW,317,4.0,15.0,73,0.01,,,0.33,127.0,meteohub,2013-02-19 22:57:00,
2013-02-19 15:07:00,44.1,37.0,29.91,WNW,289,9.0,15.0,76,0.01,,,0.33,49.0,meteohub,2013-02-19 23:07:00,
2013-02-19 15:12:00,42.8,36.5,29.91,WSW,242,6.0,21.0,78,0.01,,,0.33,151.0,meteohub,2013-02-19 23:12:00,
2013-02-19 15:17:00,42.4,37.4,29.91,WSW,257,10.0,21.0,82,0.01,,,0.33,506.0,meteohub,2013-02-19 23:17:00,
2013-02-19 15:22:00,43.9,38.5,29.90,West,259,7.0,21.0,81,0.01,,,0.33,471.0,meteohub,2013-02-19 23:22:00,
2013-02-19 15:27:00,44.1,37.4,29.91,SW,235,13.0,16.0,77,0.01,,,0.33,84.0,meteohub,2013-02-19 23:27:00,
2013-02-19 15:37:00,43.3,36.7,29.91,SSW,207,4.0,17.0,77,0.01,,,0.33,483.0,meteohub,2013-02-19 23:37:00,
2013-02-19 15:47:00,45.0,38.5,29.90,WSW,258,6.0,20.0,78,0.00,,,0.33,376.0,meteohub,2013-02-19 23:47:00,
2013-02-19 16:12:00,45.9,36.0,29.90,West,261,5.0,12.0,68,0.00,,,0.00,327.0,meteohub,2013-02-20 00:12:00,
2013-02-19 16:17:00,45.7,35.4,29.90,WNW,286,7.0,13.0,67,0.00,,,0.00,309.0,meteohub,2013-02-20 00:17:00,
2013-02-19 16:22:00,45.7,35.1,29.90,WSW,252,6.0,13.0,66,0.00,,,0.00,111.0,meteohub,2013-02-20 00:22:00,
2013-02-19 16:27:00,45.7,35.1,29.89,NW,309,4.0,14.0,66,0.00,,,0.00,260.0,meteohub,2013-02-20 00:27:00,
2013-02-19 16:37:00,46.0,35.2,29.90,West,259,7.0,14.0,66,0.00,,,0.00,220.0,meteohub,2013-02-20 00:37:00,
2013-02-19 16:47:00,45.3,34.3,29.89,South,186,3.0,19.0,65,0.00,,,0.00,172.0,meteohub,2013-02-20 00:47:00,
2013-02-19 16:52:00,45.1,34.9,29.89,WNW,288,9.0,19.0,67,0.00,,,0.00,155.0,meteohub,2013-02-20 00:52:00,
2013-02-19 16:57:00,45.1,35.2,29.89,SW,234,5.0,19.0,68,0.00,,,0.00,137.0,meteohub,2013-02-20 00:57:00,
2013-02-19 17:02:00,45.0,34.7,29.89,SW,234,5.0,15.0,67,0.00,,,0.00,113.0,meteohub,2013-02-20 01:02:00,
2013-02-19 17:07:00,44.8,34.2,29.89,West,281,5.0,15.0,66,0.00,,,0.00,76.0,meteohub,2013-02-20 01:07:00,
2013-02-19 17:12:00,44.2,34.3,29.89,WSW,249,6.0,13.0,68,0.00,,,0.00,54.0,meteohub,2013-02-20 01:12:00,
2013-02-19 17:17:00,44.1,34.5,29.89,WSW,256,9.0,13.0,69,0.00,,,0.00,51.0,meteohub,2013-02-20 01:17:00,
2013-02-19 17:22:00,43.5,34.0,29.89,West,265,4.0,12.0,69,0.00,,,0.00,47.0,meteohub,2013-02-20 01:22:00,
2013-02-19 17:32:00,43.3,34.5,29.89,WSW,241,4.0,12.0,71,0.00,,,0.00,23.0,meteohub,2013-02-20 01:32:00,
2013-02-19 17:42:00,43.0,34.2,29.90,WSW,248,4.0,9.0,71,0.00,,,0.00,7.0,meteohub,2013-02-20 01:42:00,
2013-02-19 17:47:00,42.6,33.8,29.90,WSW,241,5.0,9.0,71,0.00,,,0.00,5.0,meteohub,2013-02-20 01:47:00,
2013-02-19 17:52:00,42.4,34.0,29.89,West,266,6.0,10.0,72,0.00,,,0.00,0.0,meteohub,2013-02-20 01:52:00,
2013-02-19 18:02:00,41.7,33.6,29.89,West,268,1.0,11.0,73,0.00,,,0.00,0.0,meteohub,2013-02-20 02:02:00,
2013-02-19 18:07:00,41.5,33.8,29.90,WSW,254,2.0,11.0,74,0.00,,,0.00,0.0,meteohub,2013-02-20 02:07:00,
2013-02-19 18:12:00,41.5,34.2,29.90,WSW,257,4.0,7.0,75,0.00,,,0.00,0.0,meteohub,2013-02-20 02:12:00,
2013-02-19 18:17:00,41.4,34.0,29.90,West,267,1.0,7.0,75,0.00,,,0.00,0.0,meteohub,2013-02-20 02:17:00,
2013-02-19 18:22:00,41.4,34.3,29.90,WSW,242,1.0,7.0,76,0.00,,,0.00,0.0,meteohub,2013-02-20 02:22:00,
2013-02-19 18:27:00,41.0,34.0,29.90,WSW,246,0.0,6.0,76,0.00,,,0.00,0.0,meteohub,2013-02-20 02:27:00,
2013-02-19 18:32:00,40.1,34.2,29.91,WSW,238,0.0,5.0,79,0.00,,,0.00,0.0,meteohub,2013-02-20 02:32:00,
2013-02-19 18:37:00,39.6,34.0,29.91,WSW,238,0.0,4.0,80,0.00,,,0.00,0.0,meteohub,2013-02-20 02:37:00,
2013-02-19 18:42:00,39.6,34.0,29.91,WSW,248,2.0,5.0,80,0.00,,,0.00,0.0,meteohub,2013-02-20 02:42:00,
2013-02-19 18:47:00,39.7,34.2,29.91,West,266,2.0,5.0,80,0.00,,,0.00,0.0,meteohub,2013-02-20 02:47:00,
2013-02-19 18:52:00,39.7,34.2,29.91,West,263,2.0,5.0,80,0.00,,,0.00,0.0,meteohub,2013-02-20 02:52:00,
2013-02-19 18:57:00,39.7,33.8,29.91,WSW,258,5.0,7.0,79,0.00,,,0.00,0.0,meteohub,2013-02-20 02:57:00,
2013-02-19 19:02:00,39.7,33.8,29.91,SW,219,3.0,7.0,79,0.00,,,0.00,0.0,meteohub,2013-02-20 03:02:00,
2013-02-19 19:07:00,39.7,33.8,29.91,West,261,1.0,7.0,79,0.00,,,0.00,0.0,meteohub,2013-02-20 03:07:00,
2013-02-19 19:12:00,39.7,33.4,29.91,WSW,251,4.0,6.0,78,0.00,,,0.00,0.0,meteohub,2013-02-20 03:12:00,
2013-02-19 19:17:00,39.9,33.6,29.91,WSW,242,0.0,6.0,78,0.00,,,0.00,0.0,meteohub,2013-02-20 03:17:00,
2013-02-19 19:22:00,39.6,33.3,29.91,WSW,240,0.0,6.0,78,0.00,,,0.00,0.0,meteohub,2013-02-20 03:22:00,
2013-02-19 19:27:00,39.4,33.4,29.92,WSW,240,0.0,6.0,79,0.00,,,0.00,0.0,meteohub,2013-02-20 03:27:00,
2013-02-19 19:32:00,39.2,33.3,29.92,WSW,240,0.0,4.0,79,0.00,,,0.00,0.0,meteohub,2013-02-20 03:32:00,
2013-02-19 19:37:00,38.8,32.9,29.92,WSW,240,0.0,4.0,79,0.00,,,0.00,0.0,meteohub,2013-02-20 03:37:00,
2013-02-19 19:42:00,38.8,33.3,29.92,WSW,240,0.0,2.0,80,0.00,,,0.00,0.0,meteohub,2013-02-20 03:42:00,
2013-02-19 19:47:00,38.7,33.1,29.92,SW,234,0.0,4.0,80,0.00,,,0.00,0.0,meteohub,2013-02-20 03:47:00,
2013-02-19 19:57:00,38.1,32.7,29.92,SW,234,0.0,3.0,81,0.00,,,0.00,0.0,meteohub,2013-02-20 03:57:00,
2013-02-19 20:02:00,37.9,32.9,29.92,SW,234,0.0,2.0,82,0.00,,,0.00,0.0,meteohub,2013-02-20 04:02:00,
2013-02-19 20:07:00,38.1,33.1,29.92,SW,227,3.0,3.0,82,0.00,,,0.00,0.0,meteohub,2013-02-20 04:07:00,
2013-02-19 20:18:00,38.1,33.4,29.92,SW,228,0.0,4.0,83,0.00,,,0.00,0.0,meteohub,2013-02-20 04:18:00,
2013-02-19 20:27:00,38.1,33.4,29.93,SW,228,0.0,3.0,83,0.00,,,0.00,0.0,meteohub,2013-02-20 04:27:00,
2013-02-19 20:37:00,38.7,34.0,29.93,WSW,242,0.0,2.0,83,0.00,,,0.00,0.0,meteohub,2013-02-20 04:37:00,
2013-02-19 20:42:00,39.0,34.0,29.93,WSW,242,0.0,2.0,82,0.00,,,0.00,0.0,meteohub,2013-02-20 04:42:00,
2013-02-19 20:47:00,39.0,33.6,29.94,WSW,242,0.0,2.0,81,0.00,,,0.00,0.0,meteohub,2013-02-20 04:47:00,
2013-02-19 20:57:00,39.0,34.0,29.94,SW,227,0.0,1.0,82,0.00,,,0.00,0.0,meteohub,2013-02-20 04:57:00,
2013-02-19 21:02:00,39.4,34.3,29.94,SW,225,0.0,3.0,82,0.00,,,0.00,0.0,meteohub,2013-02-20 05:02:00,
2013-02-19 21:07:00,39.6,34.5,29.95,SW,227,0.0,3.0,82,0.00,,,0.00,0.0,meteohub,2013-02-20 05:07:00,
2013-02-19 21:12:00,39.7,34.3,29.94,SW,227,0.0,3.0,81,0.00,,,0.00,0.0,meteohub,2013-02-20 05:12:00,
2013-02-19 21:17:00,39.7,34.7,29.94,SW,227,0.0,2.0,82,0.00,,,0.00,0.0,meteohub,2013-02-20 05:17:00,
2013-02-19 21:22:00,39.4,34.7,29.95,SW,227,0.0,2.0,83,0.00,,,0.00,0.0,meteohub,2013-02-20 05:22:00,
2013-02-19 21:27:00,39.0,34.3,29.95,SW,227,0.0,2.0,83,0.00,,,0.00,0.0,meteohub,2013-02-20 05:27:00,
2013-02-19 21:32:00,38.8,34.2,29.95,SW,227,0.0,0.0,83,0.00,,,0.00,0.0,meteohub,2013-02-20 05:32:00,
2013-02-19 21:37:00,38.7,34.0,29.95,SW,227,0.0,0.0,83,0.00,,,0.00,0.0,meteohub,2013-02-20 05:37:00,
2013-02-19 21:42:00,38.1,33.4,29.95,SW,227,0.0,0.0,83,0.00,,,0.00,0.0,meteohub,2013-02-20 05:42:00,
2013-02-19 21:47:00,37.8,33.1,29.95,SW,227,0.0,0.0,83,0.00,,,0.00,0.0,meteohub,2013-02-20 05:47:00,
2013-02-19 21:52:00,37.8,33.4,29.94,SW,226,1.0,1.0,84,0.00,,,0.00,0.0,meteohub,2013-02-20 05:52:00,
2013-02-19 21:57:00,37.0,32.7,29.95,SW,226,0.0,2.0,84,0.00,,,0.00,0.0,meteohub,2013-02-20 05:57:00,
2013-02-19 22:02:00,37.2,33.1,29.95,SW,226,0.0,2.0,85,0.00,,,0.00,0.0,meteohub,2013-02-20 06:02:00,
2013-02-19 22:07:00,37.8,33.4,29.95,SW,226,0.0,2.0,84,0.00,,,0.00,0.0,meteohub,2013-02-20 06:07:00,
2013-02-19 22:12:00,37.8,33.4,29.96,SW,226,0.0,0.0,84,0.00,,,0.00,0.0,meteohub,2013-02-20 06:12:00,
2013-02-19 22:17:00,37.6,32.9,29.96,SW,226,0.0,0.0,83,0.00,,,0.00,0.0,meteohub,2013-02-20 06:17:00,
2013-02-19 22:22:00,37.0,32.4,29.96,SW,226,0.0,0.0,83,0.00,,,0.00,0.0,meteohub,2013-02-20 06:22:00,
2013-02-19 22:27:00,37.0,32.7,29.96,SW,226,0.0,1.0,84,0.00,,,0.00,0.0,meteohub,2013-02-20 06:27:00,
2013-02-19 22:32:00,37.0,32.7,29.96,SW,226,0.0,1.0,84,0.00,,,0.00,0.0,meteohub,2013-02-20 06:32:00,
2013-02-19 22:37:00,36.7,32.5,29.96,SW,226,0.0,1.0,85,0.00,,,0.00,0.0,meteohub,2013-02-20 06:37:00,
2013-02-19 22:42:00,36.7,32.5,29.97,SW,226,0.0,1.0,85,0.00,,,0.00,0.0,meteohub,2013-02-20 06:42:00,
2013-02-19 22:47:00,36.7,32.9,29.97,SW,226,0.0,1.0,86,0.00,,,0.00,0.0,meteohub,2013-02-20 06:47:00,
2013-02-19 22:52:00,36.9,33.4,29.97,SW,226,0.0,1.0,87,0.00,,,0.00,0.0,meteohub,2013-02-20 06:52:00,
2013-02-19 22:57:00,37.0,33.6,29.97,SW,226,0.0,1.0,87,0.00,,,0.00,0.0,meteohub,2013-02-20 06:57:00,
2013-02-19 23:02:00,37.4,33.8,29.98,SW,226,0.0,1.0,87,0.00,,,0.00,0.0,meteohub,2013-02-20 07:02:00,
2013-02-19 23:07:00,37.8,34.0,29.98,SW,226,0.0,2.0,86,0.00,,,0.00,0.0,meteohub,2013-02-20 07:07:00,
2013-02-19 23:12:00,37.8,33.6,29.97,SW,226,0.0,2.0,85,0.00,,,0.00,0.0,meteohub,2013-02-20 07:12:00,
2013-02-19 23:17:00,37.6,33.8,29.97,SW,226,0.0,2.0,86,0.00,,,0.00,0.0,meteohub,2013-02-20 07:17:00,
2013-02-19 23:22:00,37.6,33.8,29.98,SW,226,0.0,2.0,86,0.00,,,0.00,0.0,meteohub,2013-02-20 07:22:00,
2013-02-19 23:27:00,37.8,34.0,29.98,SW,229,1.0,2.0,86,0.00,,,0.00,0.0,meteohub,2013-02-20 07:27:00,
2013-02-19 23:32:00,37.9,33.8,29.98,SSE,150,0.0,3.0,85,0.00,,,0.00,0.0,meteohub,2013-02-20 07:32:00,
2013-02-19 23:37:00,38.3,34.2,29.98,SSW,213,0.0,4.0,85,0.00,,,0.00,0.0,meteohub,2013-02-20 07:37:00,
2013-02-19 23:42:00,38.5,34.2,29.99,South,170,0.0,4.0,84,0.00,,,0.00,0.0,meteohub,2013-02-20 07:42:00,
2013-02-19 23:47:00,38.7,34.2,29.99,South,170,0.0,4.0,84,0.00,,,0.00,0.0,meteohub,2013-02-20 07:47:00,
2013-02-19 23:52:00,38.8,34.2,29.98,South,190,0.0,2.0,83,0.00,,,0.00,0.0,meteohub,2013-02-20 07:52:00,
2013-02-19 23:57:00,39.0,34.3,29.99,SSW,192,3.0,3.0,83,0.00,,,0.00,0.0,meteohub,2013-02-20 07:57:00,